Ponca City, OK

7:39 AM CST on December 06, 2019 (GMT -0600)
Ponca City Municipal

Weather History for KPNC - November, 2019

Change the Weather History Date:

Tuesday, November 19, 2019

  Actual Average Record
Temperature  
Mean Temperature 52 °F -  
Max Temperature 71 °F 57 °F 79 °F (2007)
Min Temperature 33 °F 37 °F 22 °F (1971)
Degree Days  
Heating Degree Days 13    
Growing Degree Days 2 (Base 50)    
Moisture  
Dew Point 35 °F    
Average Humidity 56    
Maximum Humidity 89    
Minimum Humidity 30    
Precipitation  
Precipitation 0.00 in - - ()
Sea Level Pressure  
Sea Level Pressure 29.90 in    
Wind  
Wind Speed 5 mph (SE)    
Max Wind Speed 17 mph    
Max Gust Speed -    
Visibility 10 miles    
Events      
Averages and records for this station are not official NWS values.
T = Trace of Precipitation, MM = Missing Value Source: NWS Daily Summary

Daily Weather History Graph

Daily Weather History Graph

Search for Another Location

Airport or City:

Astronomy

Nov. 19, 2019 Rise Set
Actual Time 7:10 AM CST 5:16 PM CST
Civil Twilight 6:42 AM CST 5:44 PM CST
Nautical Twilight 6:11 AM CST 6:16 PM CST
Astronomical Twilight 5:40 AM CST 6:46 PM CST
Moon No Moon Rise 1:22 PM CST (11/19)
Length of Visible Light 11h 02m
Length of Day
10h 06m
Waning Gibbous, 51% of the Moon is Illuminated
Nov 19
Waning Gibbous
Nov 19
Last Quarter
Nov 26
New
Dec 4
First Quarter
Dec 11
Full

Hourly Weather History & Observations

Time (CST) Temp. Dew Point Humidity Pressure Visibility Wind Dir Wind Speed Gust Speed Precip Events Conditions
12:53 AM 43.0 °F 35.1 °F 74% 29.89 in 9.0 mi Calm Calm - N/A   Clear
1:53 AM 42.1 °F 35.1 °F 76% 29.90 in 10.0 mi Calm Calm - N/A   Clear
2:53 AM 37.9 °F 33.1 °F 83% 29.90 in 10.0 mi Calm Calm - N/A   Clear
3:53 AM 35.1 °F 30.9 °F 85% 29.90 in 10.0 mi Calm Calm - N/A   Clear
4:53 AM 36.0 °F 32.0 °F 86% 29.91 in 10.0 mi Calm Calm - N/A   Clear
5:53 AM 33.1 °F 30.0 °F 89% 29.94 in 10.0 mi Calm Calm - N/A   Clear
6:53 AM 35.1 °F 30.9 °F 85% 29.96 in 10.0 mi Calm Calm - N/A   Clear
7:53 AM 36.0 °F 30.9 °F 82% 29.98 in 10.0 mi Calm Calm - N/A   Clear
8:53 AM 44.1 °F 36.0 °F 73% 29.99 in 10.0 mi Calm Calm - N/A   Clear
10:53 AM 60.1 °F 37.9 °F 44% 29.99 in 10.0 mi SE 8.1 mph - N/A   Clear
11:53 AM 64.0 °F 39.0 °F 40% 29.94 in 10.0 mi SE 11.5 mph - N/A   Clear
12:53 PM 68.0 °F 37.9 °F 33% 29.90 in 10.0 mi SSE 15.0 mph - N/A   Clear
1:53 PM 70.0 °F 37.9 °F 31% 29.87 in 10.0 mi SE 17.3 mph - N/A   Clear
2:53 PM 71.1 °F 37.9 °F 30% 29.85 in 10.0 mi SE 12.7 mph - N/A   Clear
3:53 PM 70.0 °F 39.0 °F 32% 29.84 in 10.0 mi SE 16.1 mph - N/A   Clear
4:53 PM 66.0 °F 39.0 °F 37% 29.85 in 10.0 mi SE 11.5 mph - N/A   Clear
5:53 PM 62.1 °F 37.9 °F 41% 29.86 in 10.0 mi ESE 11.5 mph - N/A   Clear
6:53 PM 62.1 °F 37.0 °F 39% 29.86 in 10.0 mi SE 16.1 mph - N/A   Clear
7:53 PM 60.1 °F 35.1 °F 39% 29.86 in 10.0 mi SE 17.3 mph - N/A   Clear
8:53 PM 57.0 °F 35.1 °F 44% 29.87 in 10.0 mi SE 15.0 mph - N/A   Clear
9:53 PM 55.0 °F 35.1 °F 47% 29.86 in 10.0 mi SE 15.0 mph - N/A   Clear
10:53 PM 55.9 °F 35.1 °F 45% 29.85 in 10.0 mi SE 15.0 mph - N/A   Clear
11:53 PM 59.0 °F 36.0 °F 42% 29.84 in 10.0 mi SSE 17.3 mph - N/A   Clear